Back to catalog

HAIYANG 1

AliveScienceSSO
NORAD 27430·PAYLOAD·🇨🇳 China

Launched May 15, 2002 from Taiyuan Satellite Launch Center

Loading…

Next Passes (next 24 hours)

TLE

FreshSource: Space-Track

Epoch: Sep 14, 2026, 07:30 UTC

1 27430U 02024A   26257.31287902  .00000195  00000-0  87361-4 0  9992
2 27430  98.7397 220.1138 0008726 168.3480 191.7907 14.33193468270590

Track HAIYANG 1 in real time with AllMySat

Download on the App Store